Location: *
(37.5724°S, 58.0067°E)
Time: 11:47:58
(UTC+00:00)

Cosmos 1025 Rocket - Visible Passes

Search period start: 18 January 2021 00:00
Search period end: 28 January 2021 00:00
Orbit: 594 x 617 km, 82.5° (Epoch: 17 January)

Date Brightness Start Highest point End Pass type
(mag) Time Alt. Az. Time Alt. Az. Time Alt. Az.
19 Jan 6.4 23:33:52 10° E 23:34:01 10° E 23:34:09 10° E visible
20 Jan 5.8 23:44:07 10° NE 23:47:02 18° E 23:49:59 10° SE visible
21 Jan 4.9 23:56:19 10° NNE 00:00:07 30° E 00:03:58 10° SSE visible
23 Jan 3.8 00:09:02 10° N 00:13:17 53° E 00:17:33 10° SSE visible
24 Jan 3.0 00:22:08 10° N 00:26:29 86° W 00:30:54 10° S visible
24 Jan 5.9 23:00:55 10° ENE 23:02:41 12° E 23:04:27 10° ESE visible
25 Jan 3.4 00:35:34 10° NNW 00:39:46 48° W 00:44:01 10° S visible
25 Jan 5.4 23:12:27 10° NE 23:15:44 21° E 23:19:02 10° SE visible
26 Jan 4.4 23:24:57 10° NNE 23:28:50 36° E 23:32:51 10° SSE visible
27 Jan 3.4 23:38:43 17° N 23:42:01 65° E 23:46:21 10° SSE visible
